STARLINK-1031, 44736

Orbit data source: Space-Track

STARLINK-1031, 44736 is a payload satellite owned by SpaceX/Seattle (US) in LEO that was launched on Mon, 11 Nov 2019 UTC via an FALCON 9 launch vehicle from the Air Force Eastern Test Range (AFETR). Payload-class satellites include a variety of spacecraft equipped with specific instruments for various scientific and technological missions. These include communications satellites like Starlink; space stations such as the ISS; scientific satellites like the Hubble; Earth observation satellites from companies like Planet Labs, Umbra, and HawkEye 360; GPS; miniature CubeSats for education and research; and military/defense satellites.

Loading next visibility...
Identifier
44736, 2019-074Z
Orbit
LEO
Country
Flag of USUS
Related business
Manufacturer
SpaceX/Seattle
Mission
Partially operational Commercial Communications
Bus & Motor
STARLINK, Unknown motor
Mass
260 kg wet, ~248 kg dry
Launch date (UTC)
2019-11-11 (6 years ago)
Launch vehicle
FALCON 9
Launch site
Air Force Eastern Test Range (AFETR)
Object type
Payload
Rocket body
Debris
Shape & HBR
Box + 1 Pan, 10.1 m
Radar Cross Section
13.562 m², Large (>1 m²)

Expand to show TLE details & history
Last TLE update: 14 hours ago

TLE from 14 hours ago
0 STARLINK-1031
1 44736U 19074Z   25286.55687108  .00116154  00000-0  25731-2 0  9996
2 44736  53.0518 121.3835 0009359 128.0595 232.1255 15.42868076326667
Epoch: 2025-10-13T13:21Z
TLE epoch observation values (Epoch: 2025-10-13T13:21:53.661Z)
Latitude
-0.00006°
Longitude
-101.44808°
Altitude
442.462 km
Speed
7.646 km/s
True Right ascension
08h 05m 32s
True Declination
0° 00' 00"
Sunlit
Object was in daylight at epoch
Visualization orbit readout
Latitude
Unknown
Longitude
Unknown
Altitude
Unknown
Speed
Unknown
Apparent Right ascension
Unknown
Apparent Declination
Unknown
Sunlit
N/A
Visualization observer readout
Local Sidereal Time
21:23:26
Azimuth
Unknown
Elevation
Unknown
Doppler factor
Unknown
Orbital elements
Apogee altitude
444.304 km
Perigee altitude
431.546 km
Semi-major axis
6,816.062 km
Eccentricity
0.00094
Inclination
53.0518°
RAAN
121.3835°
Arg. of periapsis
128.0595°
True anomaly
232.04091°
Mean anomaly
232.1255°
Eccentric anomaly
232.0832°
Mean motion
3.85694 °/min
Orbital period
93.34 mins
BSTAR
0.0025731
Loading maneuver chart data...
Computing Atmospheric mass density...
Loading historical data...
Loading historical data...
Loading historical data...
Loading historical data...
Loading historical data...
Loading historical data...
Loading historical data...

Documentation

Showing up to 5 results
|